Location: Crescent
(42.8242°N, 73.7329°W)
Time: 18:33:47
(UTC+00:00)

Vanguard 1 Rocket - Pass Details

Date: 20 February 2026
Orbit: 653 x 4214 km, 34.3° (Epoch: 8 March)

Event Time Altitude Azimuth Distance (km) Brightness Sun altitude
Rises 16:27:16 0° 213° (SSW) 3,630 11.0 35.6°
Reaches altitude 10° 16:29:45 10° 201° (SSW) 2,966 11.0 35.7°
Maximum altitude 16:36:00 29° 142° (SE) 2,545 11.2 35.9°
Drops below altitude 10° 16:46:22 10° 89° (E) 5,051 11.4 36.2°
Sets 16:52:13 0° 81° (E) 6,716 11.8 36.3°
